Погода в Прешове

Словакия     49°00′07″N   21°14′21″E
темп.,
°C
ветер,
м/с
пор.,
м/с
влажн.,
%
обл.,
%
осадки,
мм/ч
давл.,
гПа
погр.,
м
18 апреля, вс
вс1823:00+3с249464 0.0 1019127
02:00+1с239615 0.0 101956
05:00+1сз359662 0.0 1019124
08:00+4с3586100 0.0 1018416
11:00+7ссв4576100 0.0 1018799
14:00+9с4469100 0.0 1018903
17:00+9с4569100 0.0 1017867
20:00+6ссз3783100 0.0 1018241
19 апреля, пн
пн1923:00+6с2386100 0.0 1018103
02:00+6ссз2386100 0.1 101872
05:00+5с2287100 0.1 101734
08:00+7с1281100 0.2 1017257
11:00+9св3370100 0.0 1016990
14:00+9св3479100 0.5 1016845
17:00+7всв1391100 0.7 1015187
20:00+6с2495100 1.2 1016180
20 апреля, вт
вт2023:00+6с2396100 0.3 1015139
02:00+6ссз249480 0.6 1014116
05:00+6ссз2594100 0.0 1013210
08:00+7ссв368979 0.1 1014610
11:00+8св2681100 0.1 1014872
14:00+11ссв336475 0.5 10131286
17:00+11ссв236264 0.8 10121068
20:00+6ссз228480 1.1 101427
21 апреля, ср
ср2123:00+5сз228936 0.0 101423
02:00+4зсз119041 0.0 101513
05:00+3з119091 0.0 101510
08:00+7юз117877 0.0 1015192
11:00+11ю236156 0.8 10141073
14:00+13юв125777 2.8 10131285
17:00+11ююв347215 2.0 1014472
20:00+7юв11865 3.1 101514
22 апреля, чт
чт2223:00+5юв119617 0.0 101616
02:00+5ююв129874 0.0 101686
05:00+6ю239588 0.0 1016175
08:00+7ю239182 0.0 1016382
11:00+8св228693 0.3 1016398
14:00+11ссв2273100 2.3 1015640
17:00+8св467986 1.7 1017620
20:00+4с118397 1.8 101913